Wind_Speed
4 3 3 3 5 7 9 11 13 14 15 16 17 18 19 19 21 23 23 25 27 28 31 33 35 36 37 38 39 39 41 41 42 44 45 46 47 46 47 47 48 50 50 50 51 50 51 52 52 51 49 47 45 43 42 43 44 45 46 48 49 50 51 52 53 54 55 55 55 55 55 53 53 52
4 3 3 4 6 8 10 12 13 14 15 15 16 17 18 19 20 22 24 26 27 28 31 33 34 37 38 39 40 41 41 42 43 44 45 46 46 46 47 48 50 51 51 51 51 51 52 53 53 52 50 47 43 41 43 44 43 45 47 47 48 49 51 53 53 54 55 56 56 56 56 56 55 54
4 4 4 5 7 9 11 12 13 14 14 15 16 17 18 19 21 22 24 26 27 28 31 32 34 36 38 39 40 41 41 42 43 44 45 46 46 47 48 50 51 51 51 51 51 52 53 54 54 52 49 46 42 42 44 44 43 45 46 47 48 49 51 53 53 54 55 56 56 57 58 59 59 58
5 4 4 6 8 9 10 11 12 13 14 15 15 17 18 19 21 23 24 27 29 29 31 32 34 36 38 38 39 41 41 42 43 43 45 46 47 48 50 51 51 51 52 52 52 52 54 55 54 52 50 47 44 43 44 44 43 44 45 46 48 50 52 53 54 55 54 55 56 58 59 60 61 61
6 5 5 6 8 9 10 11 12 13 13 14 15 16 18 20 21 23 25 28 31 31 31 33 34 35 37 38 38 40 42 42 43 44 44 46 48 50 51 52 52 52 52 52 52 52 54 56 55 54 53 49 44 42 43 43 43 43 45 47 49 52 53 52 53 53 54 54 56 59 61 62 63 63
6 5 6 7 8 9 10 11 11 13 13 14 16 16 18 19 21 23 25 28 31 33 33 33 35 35 36 38 39 40 42 43 44 45 45 46 49 50 52 52 52 51 51 53 53 53 54 55 55 55 53 48 43 41 43 44 43 43 45 46 49 51 52 51 50 51 54 56 58 59 61 62 63 62
6 6 7 7 8 9 10 10 11 12 13 15 16 16 18 19 21 23 25 27 30 33 34 34 35 36 36 37 39 40 42 43 45 46 46 47 49 50 51 52 52 52 52 53 54 55 55 54 53 53 51 46 42 41 43 44 45 44 44 47 50 51 50 49 48 50 53 54 54 55 57 60 63 63
7 7 7 8 8 9 10 11 12 12 13 14 16 17 18 19 21 23 24 26 29 31 34 34 35 36 37 37 38 40 42 43 44 45 46 48 49 50 50 51 52 52 52 53 54 55 55 55 54 52 48 45 42 42 44 45 45 45 46 49 50 49 47 45 46 49 47 46 51 53 51 56 62 60
7 8 8 8 8 9 10 11 12 13 14 14 15 17 18 19 21 22 24 26 27 30 33 34 34 35 36 37 38 39 42 43 44 45 46 47 49 51 51 52 52 52 53 54 55 55 55 55 53 50 47 45 44 44 45 45 46 48 49 49 49 45 42 41 43 41 37 41 52 57 51 47 51 46
8 8 8 8 8 9 10 11 12 13 14 15 15 17 18 19 20 22 23 25 27 29 31 33 34 35 35 36 37 38 40 42 44 46 48 48 49 51 53 53 53 52 53 54 55 56 55 54 51 48 47 47 45 44 44 46 48 49 49 48 47 41 36 37 37 32 31 39 50 57 56 52 49 42
9 8 8 8 8 9 10 11 12 13 14 15 16 17 18 19 20 21 23 25 27 29 30 31 33 34 34 35 37 38 39 40 41 44 47 50 51 52 53 54 53 52 53 54 55 55 55 53 50 47 46 47 46 44 45 47 49 48 47 47 42 35 30 29 28 26 29 37 46 53 57 57 57 51
9 8 7 8 8 9 10 11 12 13 14 15 16 17 18 19 20 21 23 24 26 28 29 30 31 32 33 34 36 37 39 40 40 41 43 47 50 52 53 52 51 52 54 55 55 55 54 53 50 47 46 46 44 43 46 48 47 45 46 45 37 27 22 22 24 25 28 34 42 49 53 56 59 58
9 8 8 8 8 9 10 11 11 12 13 15 16 17 18 19 20 21 22 24 25 27 28 28 30 31 32 33 35 37 37 38 40 40 42 44 47 49 51 51 50 51 53 54 54 53 51 51 50 47 46 46 43 43 46 46 43 43 43 39 30 23 20 21 23 25 28 34 39 42 46 51 54 54
8 8 8 8 8 9 10 11 11 12 14 15 16 17 18 19 20 20 21 23 24 25 26 27 28 30 31 31 32 34 35 36 38 40 41 43 44 46 49 51 50 49 52 54 53 51 48 48 48 45 45 46 44 44 45 42 40 41 38 30 23 21 21 21 23 26 30 35 38 39 42 46 48 47
8 7 7 8 8 9 10 11 12 13 14 15 16 17 18 19 19 20 21 22 22 24 25 25 26 28 30 30 30 32 34 36 37 39 39 40 42 43 45 49 50 50 50 51 52 51 47 45 46 44 43 44 42 41 41 38 35 36 33 25 21 21 20 20 24 29 32 35 38 39 41 43 44 43
8 7 7 8 9 9 10 11 12 13 14 15 16 17 17 18 18 19 20 21 21 22 24 24 25 26 28 29 29 31 33 35 37 38 38 38 39 40 41 44 48 49 48 47 49 50 46 43 43 43 42 41 40 38 36 33 31 32 30 24 21 21 21 23 28 31 33 35 38 40 41 41 40 40
8 7 7 8 9 10 11 12 12 13 14 15 16 16 17 17 17 17 18 19 20 21 23 24 24 24 26 28 29 29 31 34 36 37 38 38 38 38 39 41 45 46 44 43 44 47 45 42 41 42 41 39 37 36 33 30 27 27 27 23 20 20 22 26 29 30 31 34 37 39 39 39 38 36
7 6 7 8 10 11 12 12 13 13 14 15 16 16 16 16 16 16 17 17 18 19 20 22 23 23 25 27 28 28 29 31 33 35 37 37 37 38 39 39 42 42 40 37 37 41 44 41 40 42 41 39 36 33 31 28 24 22 24 23 20 20 22 26 28 27 28 32 34 36 37 35 34 33
6 6 7 9 11 12 13 13 13 14 14 15 16 16 15 15 16 16 16 16 17 18 19 21 22 23 24 25 26 28 28 30 31 32 33 34 35 38 39 39 40 39 38 33 29 33 40 40 40 41 40 38 35 31 30 28 21 17 20 22 20 20 22 24 25 26 27 29 32 34 34 32 29 29
5 6 8 11 12 13 14 14 14 15 15 15 16 15 15 15 15 16 15 15 17 18 19 20 22 22 23 24 25 26 27 29 30 31 31 32 33 36 39 40 39 38 38 32 23 27 37 39 39 40 39 38 35 31 29 28 20 13 14 18 18 19 22 23 25 25 25 27 29 31 31 29 26 25
5 7 9 11 13 14 14 15 15 15 16 16 16 16 15 15 16 15 15 15 16 17 18 19 20 21 22 22 23 25 26 27 28 29 31 31 32 34 36 38 39 38 36 30 25 28 34 36 38 41 39 36 33 31 30 27 19 11 9 11 14 17 20 23 25 24 24 25 26 27 27 26 24 22
6 8 10 12 13 14 15 16 16 16 16 16 16 16 16 16 16 16 16 15 15 16 17 18 19 20 21 21 22 23 24 25 26 27 29 30 30 32 33 34 37 38 33 27 27 30 32 33 36 39 40 37 32 29 28 26 19 11 8 10 10 13 18 21 22 23 23 22 23 24 24 23 22 21
8 9 11 12 14 15 16 16 16 17 17 17 17 17 17 17 17 16 16 16 16 16 17 18 18 19 20 21 22 22 23 24 25 26 27 28 28 30 31 30 32 35 33 28 27 28 31 33 34 35 37 38 34 30 27 24 20 14 9 11 12 13 16 17 18 20 22 21 21 21 21 21 20 19
9 10 11 13 15 16 17 17 17 18 17 17 17 17 18 18 17 16 16 17 17 18 18 18 19 19 20 21 21 22 23 24 25 25 26 27 27 28 29 28 27 29 31 28 25 25 30 32 32 31 30 30 33 32 27 21 19 16 10 11 13 14 14 14 16 18 19 19 19 19 19 19 19 18
10 10 12 14 16 17 18 18 18 18 18 17 17 18 18 18 17 17 16 17 17 18 18 19 20 20 20 21 21 22 23 24 25 26 26 27 27 26 26 27 27 28 28 24 21 23 28 31 31 31 28 26 29 30 26 19 17 15 11 10 11 11 11 13 15 17 17 17 18 19 18 17 17 18
11 11 12 15 17 18 18 19 19 18 17 17 18 18 18 18 17 16 17 17 17 18 19 20 21 21 21 21 21 22 23 24 25 25 26 27 27 25 23 23 24 26 26 22 19 21 26 29 29 29 28 27 27 26 23 17 15 14 11 9 9 9 10 12 14 15 15 16 17 17 16 14 14 15
11 12 14 17 18 19 19 19 19 18 17 17 18 18 18 17 17 16 17 17 18 19 19 20 21 21 21 21 21 22 23 24 25 25 26 26 26 25 22 20 19 20 22 20 18 20 24 27 27 25 24 24 24 23 19 16 15 14 11 9 7 7 9 11 13 13 13 14 14 14 13 13 13 13
12 14 17 19 20 20 20 20 19 18 18 18 18 18 17 16 16 16 17 17 18 19 20 20 21 21 21 21 21 22 23 24 25 25 26 26 26 25 23 20 17 16 17 18 18 20 22 24 25 23 20 19 20 20 17 16 15 14 11 9 7 6 8 10 11 11 11 12 12 11 11 12 12 12
14 16 20 22 22 22 21 20 19 18 18 18 18 17 16 16 16 16 17 17 18 19 20 21 21 21 21 20 20 21 22 23 25 26 26 26 26 26 25 23 19 16 16 17 18 19 21 22 24 22 17 14 15 16 15 15 15 13 10 9 7 4 7 9 10 10 10 10 10 10 10 11 11 11
17 19 22 24 24 23 22 21 20 19 18 18 17 16 16 16 15 16 17 17 18 19 20 21 21 21 21 21 21 21 21 23 24 26 27 27 27 27 26 25 22 19 17 17 18 19 20 21 21 21 17 12 12 13 13 12 12 11 9 10 9 5 5 7 8 9 9 9 9 9 9 9 9 9
19 22 25 25 24 24 23 22 21 20 18 17 17 16 16 16 15 16 17 18 19 19 20 21 20 20 21 21 21 21 21 22 24 25 26 27 27 27 26 25 25 23 20 18 17 18 19 20 20 19 17 13 11 11 10 9 10 10 9 10 9 5 4 5 6 7 7 8 9 8 8 8 8 7
21 24 26 26 25 24 24 24 22 20 19 18 17 17 16 16 16 16 17 18 19 20 20 21 20 20 20 21 21 21 21 22 23 24 26 27 27 26 26 25 25 25 24 22 19 17 16 17 18 18 17 14 12 11 9 8 8 9 9 10 9 6 3 4 4 5 6 8 8 7 7 8 8 8
23 26 28 27 25 25 25 25 22 20 19 18 18 17 16 16 17 17 17 18 18 19 20 20 20 20 20 20 21 21 21 22 23 24 25 26 26 26 25 24 23 24 25 24 22 19 16 14 15 16 15 13 11 10 9 7 6 7 8 9 9 6 3 3 3 4 5 6 7 5 6 7 8 9
26 28 29 28 27 26 26 25 22 20 20 19 18 18 17 17 17 17 18 18 18 19 19 19 20 19 19 20 20 21 22 22 23 24 25 26 26 25 23 22 22 23 24 24 23 21 19 16 13 13 13 12 11 10 8 6 4 5 6 8 9 7 4 2 1 2 3 4 5 4 3 6 8 10
28 30 30 29 28 27 26 24 22 21 20 19 19 18 18 18 18 18 18 18 18 18 19 19 19 19 19 19 20 20 22 22 22 23 25 26 26 24 22 21 21 22 22 23 22 21 19 17 14 11 9 8 9 10 9 7 4 2 3 6 9 7 4 2 1 1 2 3 4 3 2 4 7 9
30 32 31 29 28 27 27 24 22 21 21 19 19 19 19 19 19 19 18 18 17 18 18 18 18 18 19 19 19 19 21 22 22 23 24 25 25 23 21 20 20 20 21 21 21 19 17 16 14 12 8 6 5 7 8 7 4 1 2 5 8 8 5 3 1 1 1 2 3 3 2 3 5 7
33 33 32 30 29 28 27 24 22 22 21 20 20 20 20 20 20 20 19 18 17 17 18 18 18 18 19 19 19 19 20 21 22 22 24 25 25 23 21 20 20 20 19 19 18 17 15 14 13 11 9 7 5 5 7 6 4 0 2 5 8 8 5 3 2 0 1 1 1 2 2 2 4 6
34 33 32 31 29 28 27 25 23 22 21 21 21 21 21 21 21 20 19 18 17 17 17 17 18 18 19 19 19 19 19 20 21 21 22 24 24 22 21 20 20 19 18 17 16 15 13 12 11 10 9 8 6 6 7 6 4 0 4 6 7 7 5 2 1 0 2 3 2 1 0 2 3 5
35 34 32 31 30 29 27 25 23 23 22 22 22 22 21 21 21 21 20 19 18 17 17 17 18 18 19 19 19 19 19 20 20 21 21 22 22 21 20 20 20 19 17 15 13 12 11 10 10 9 9 8 7 6 7 5 3 2 5 7 8 7 5 2 0 1 3 4 4 3 2 1 0 2
34 33 32 32 31 29 28 26 24 24 24 23 23 23 22 22 22 21 20 19 18 18 17 18 18 19 19 19 19 19 19 19 19 20 20 21 21 20 19 19 19 19 17 14 11 10 10 9 9 8 7 6 5 5 5 4 3 3 5 8 8 7 5 3 1 0 2 3 4 3 3 2 2 1
34 34 34 33 32 30 28 26 25 25 25 24 24 23 23 22 22 21 20 20 19 18 18 18 18 19 19 19 19 19 19 19 19 19 19 20 20 19 18 18 17 17 16 14 11 9 9 9 8 7 5 4 4 3 3 3 4 5 6 8 9 9 7 5 3 3 2 2 1 2 2 2 3 2
36 36 35 33 32 31 29 27 26 26 26 25 25 24 24 23 22 22 21 20 20 19 18 18 19 19 19 19 19 19 19 19 19 18 18 19 19 19 17 17 17 16 15 13 10 9 8 9 8 7 5 5 4 4 4 5 5 5 6 8 10 10 9 7 5 5 5 5 4 3 2 2 3 3
37 36 36 35 33 32 30 28 27 27 26 26 25 25 25 24 23 22 22 21 20 19 19 18 19 19 19 19 18 19 19 19 19 18 18 18 19 19 17 16 16 16 15 13 10 9 8 9 8 6 6 6 5 6 6 7 6 6 7 9 10 10 10 9 7 7 7 7 5 4 4 4 3 3
37 37 37 35 34 32 30 28 28 28 27 27 27 26 26 25 24 23 22 21 20 19 19 19 19 19 19 18 18 18 19 19 19 18 18 17 17 18 17 16 15 15 14 12 10 9 9 8 7 6 5 5 5 6 7 7 7 7 8 9 10 11 11 10 8 8 8 8 6 5 5 5 5 5
36 36 36 35 34 33 31 29 29 29 29 29 28 27 26 25 24 23 22 22 21 19 19 19 19 19 19 19 18 18 18 18 18 18 18 17 17 17 17 15 14 14 13 12 10 9 9 8 7 5 4 3 3 4 5 6 6 7 8 9 10 10 10 9 8 7 8 7 6 5 6 6 6 5
Wind_Direction
221 254 287 306 321 328 331 331 330 332 332 332 332 332 334 334 334 335 333 331 333 337 341 342 340 339 340 339 339 339 340 340 341 342 342 344 345 346 346 347 349 349 348 346 343 342 342 343 342 339 337 334 330 327 324 323 322 320 319 318 317 316 315 314 313 312 310 308 307 305 304 303 302 299
229 254 283 305 321 326 326 326 328 329 329 328 328 328 328 329 330 331 330 328 331 336 339 339 338 337 338 338 337 338 339 339 340 341 341 342 344 344 344 346 350 350 348 346 343 343 345 345 343 341 339 335 329 325 325 326 325 321 320 319 318 316 315 315 313 312 310 309 307 306 305 302 300 298
232 252 279 305 317 320 322 324 324 324 324 324 324 323 323 325 326 328 329 327 329 334 336 337 337 336 336 337 336 336 338 338 339 340 339 340 341 342 344 347 351 350 348 346 345 345 346 346 343 342 341 335 329 326 328 330 327 322 321 321 319 318 317 316 315 313 312 310 308 306 304 302 300 299
234 253 279 303 313 315 317 318 318 319 320 320 320 320 320 322 323 326 328 327 328 332 335 335 336 335 334 335 335 334 335 336 336 337 338 339 340 342 345 349 351 350 348 346 346 346 347 346 343 342 341 337 331 328 330 331 327 323 322 322 322 321 321 319 317 317 316 314 310 307 306 304 302 301
234 257 282 299 308 310 311 313 313 315 316 316 316 317 318 320 323 326 327 327 328 331 335 335 335 335 334 334 334 333 333 334 334 336 338 339 341 345 348 350 351 351 348 346 346 347 347 346 343 341 340 338 334 331 332 333 330 326 323 322 323 324 325 323 322 322 321 318 314 311 309 306 303 300
237 262 284 296 301 302 305 307 310 311 312 312 313 314 317 320 324 326 328 328 328 330 334 336 335 335 334 333 333 332 332 333 335 337 339 341 344 347 349 350 351 350 348 346 345 346 347 346 343 341 340 339 337 335 336 337 333 327 325 323 324 327 328 328 328 327 324 321 319 316 313 310 305 300
241 265 280 289 293 295 300 304 307 308 308 309 312 314 318 321 324 326 327 328 329 330 333 335 334 334 334 333 333 332 333 334 336 337 339 342 345 347 348 348 350 350 348 346 345 346 347 345 343 342 342 341 340 339 341 340 335 331 330 328 329 331 332 332 333 331 328 328 328 325 319 312 307 302
245 265 274 280 285 291 298 302 303 304 306 308 312 315 319 322 324 325 327 328 329 330 331 333 333 334 334 334 333 333 334 335 337 338 340 342 344 346 347 349 350 349 347 345 345 346 346 345 344 344 344 345 346 345 344 343 341 339 336 334 334 334 335 336 336 334 335 338 341 342 333 319 313 310
247 258 266 274 283 290 296 299 301 303 306 309 313 316 320 322 324 325 327 328 329 330 330 331 332 333 334 334 335 336 336 335 336 338 340 342 344 344 347 350 351 349 346 345 344 345 345 344 345 347 348 350 350 347 345 345 346 343 338 338 337 335 337 339 336 338 343 348 352 359 360 348 337 333
245 253 262 272 282 290 295 298 301 304 308 312 315 318 320 323 325 326 326 328 329 330 331 331 331 333 334 334 336 338 338 338 339 338 338 341 344 345 347 350 351 348 346 344 343 344 344 344 348 349 351 354 352 348 348 349 348 345 343 343 338 335 341 343 340 347 355 357 2 8 15 20 16 8
241 251 260 272 282 289 294 298 303 307 311 314 317 319 322 324 325 325 326 328 330 330 331 331 331 332 334 336 337 337 338 340 342 342 340 340 343 345 347 349 350 348 345 342 343 343 342 345 350 352 354 356 353 351 354 352 350 349 348 346 341 339 347 349 350 358 359 3 13 15 17 29 36 36
241 250 260 272 282 288 295 300 305 310 313 316 319 321 323 324 324 325 327 329 331 331 331 331 331 332 335 337 337 337 338 340 342 344 342 342 344 345 346 348 349 347 344 341 342 342 342 345 351 353 355 356 354 354 356 353 352 354 354 352 349 349 359 2 2 4 1 6 18 21 21 28 36 43
241 250 261 273 283 290 297 302 308 313 316 319 321 323 324 323 323 326 328 330 331 330 331 332 333 334 337 338 337 337 339 340 341 343 342 343 345 344 343 347 349 347 342 339 339 341 343 347 351 354 355 355 355 356 357 355 356 1 2 360 357 4 17 15 6 8 10 9 13 19 23 26 29 36
242 251 263 275 284 293 299 306 312 316 318 321 323 323 322 321 323 326 329 331 331 330 332 335 336 336 336 338 338 337 337 338 339 341 342 343 343 342 342 346 350 349 341 336 337 340 344 348 350 352 354 355 357 358 357 358 0 6 10 9 8 14 18 12 7 11 13 9 10 15 20 23 25 28
242 253 267 278 288 297 304 311 317 319 321 323 323 321 320 320 324 328 330 331 331 331 334 337 338 336 334 336 337 336 336 337 338 339 341 340 340 341 340 341 347 349 341 335 336 339 344 348 348 350 352 352 356 358 358 360 4 10 14 13 13 16 14 10 12 13 11 9 11 14 16 21 24 26
244 256 271 284 295 303 310 315 319 320 321 322 320 319 319 320 325 329 330 330 331 333 336 337 338 335 332 334 337 337 335 335 336 337 338 338 337 337 336 335 340 344 340 336 336 336 342 348 346 347 350 350 354 358 360 2 7 14 17 13 14 18 15 14 14 11 12 13 13 13 15 18 22 25
244 258 276 292 302 309 314 317 319 320 319 319 318 317 318 321 325 328 328 329 333 336 335 335 335 334 332 334 336 336 333 332 333 333 334 337 335 334 334 334 337 340 339 338 336 334 340 345 342 343 347 349 353 358 1 4 8 16 20 15 12 17 15 13 13 11 13 15 15 15 15 16 20 24
245 265 286 300 307 311 314 316 317 318 317 316 315 315 317 320 323 324 327 330 333 335 333 331 333 334 334 334 334 333 330 328 329 330 332 335 334 333 334 335 336 338 339 340 337 333 338 342 338 339 345 347 350 356 1 5 6 12 19 15 8 12 13 10 12 14 14 15 16 17 16 16 22 28
247 273 294 303 309 311 313 314 315 315 315 313 313 313 315 318 320 322 327 330 331 332 332 332 334 334 334 333 332 330 327 325 326 327 329 331 330 331 334 335 337 338 338 343 340 329 333 338 334 336 342 344 347 355 0 2 2 5 18 18 7 5 9 11 13 14 12 14 17 19 18 17 23 31
251 280 296 302 307 310 311 313 313 312 312 311 310 312 314 316 317 320 325 329 330 332 333 332 333 334 334 333 330 327 324 323 324 325 327 330 330 331 334 336 338 338 338 346 344 324 327 335 332 333 340 340 343 353 358 358 358 359 16 23 15 8 9 10 11 10 9 13 17 20 20 17 18 29
257 282 293 299 305 308 309 310 310 310 310 309 310 312 313 313 315 319 324 329 331 332 332 332 334 335 334 331 327 324 322 322 323 324 328 332 332 331 333 335 337 338 339 344 341 326 326 333 332 331 335 337 341 350 354 354 357 1 1 9 21 22 13 5 3 4 6 11 17 23 24 18 15 23
260 279 289 297 302 305 306 306 306 306 307 307 309 312 311 312 315 319 323 329 331 330 330 333 334 333 331 328 326 324 323 323 324 326 330 334 333 332 332 333 336 338 340 339 336 329 326 330 332 331 332 334 339 347 350 349 356 6 342 329 358 16 4 357 360 1 3 9 18 26 27 20 16 20
258 273 285 294 300 302 302 302 302 303 304 306 309 310 310 311 315 320 323 327 329 329 331 332 332 330 328 327 326 325 325 325 328 332 335 336 335 334 333 333 333 334 336 337 336 330 325 326 330 332 332 331 333 342 350 350 355 4 339 309 323 338 340 349 2 3 3 10 18 25 29 27 21 23
254 267 282 292 296 297 298 297 299 301 303 305 307 308 308 311 315 319 323 324 326 329 330 329 328 328 327 327 327 327 328 330 334 338 339 338 337 335 333 334 330 326 328 335 336 327 321 321 326 330 331 325 324 333 346 351 354 357 335 303 309 320 330 352 8 7 6 11 18 23 28 32 35 39
252 265 279 288 291 293 293 294 296 298 300 303 305 305 307 310 314 318 321 322 324 326 327 326 325 326 326 327 329 330 331 336 339 341 341 339 337 336 335 334 330 324 327 334 334 322 318 320 324 327 327 322 319 327 338 347 353 350 328 303 305 317 338 3 12 11 9 12 20 24 24 32 46 55
252 265 277 285 288 288 289 289 291 293 297 299 301 302 305 308 312 316 317 319 321 322 323 323 322 323 324 327 330 332 335 339 342 343 343 339 337 338 338 334 328 324 328 332 330 320 316 319 324 324 323 322 321 325 332 341 347 342 320 298 304 323 350 9 14 14 11 13 20 23 20 29 48 60
253 266 277 281 282 282 282 283 285 288 292 295 295 298 302 305 310 312 312 315 318 318 318 318 318 320 323 327 332 335 337 340 342 343 342 339 338 339 339 336 327 323 328 332 328 319 315 317 322 322 320 321 323 326 331 339 343 337 317 296 302 330 356 10 14 12 12 17 23 22 21 30 45 57
255 267 275 277 276 275 274 276 279 283 286 288 290 294 299 302 305 307 308 312 313 313 313 314 315 318 321 327 333 337 338 339 339 341 341 341 341 340 339 339 336 332 335 335 326 319 317 318 321 321 319 322 326 328 333 337 335 327 311 289 287 324 354 7 12 11 12 19 25 28 33 39 43 48
258 267 271 271 269 268 268 269 273 276 278 280 285 290 295 297 299 302 305 307 308 308 309 311 313 317 321 327 333 336 337 337 337 339 341 343 343 342 340 341 345 346 346 341 331 325 322 320 321 322 320 323 328 330 332 332 327 319 302 276 267 303 351 2 8 11 12 19 27 36 46 50 45 44
257 265 267 266 265 265 265 266 267 268 269 274 280 285 289 291 295 299 301 303 303 305 307 309 312 317 321 326 331 333 336 337 336 337 341 343 344 343 341 341 346 351 353 347 338 330 325 321 321 321 320 323 333 334 333 330 324 315 294 269 258 277 341 358 7 11 11 17 26 38 55 62 55 47
257 265 265 263 262 263 265 265 264 263 266 271 276 280 284 288 292 296 297 299 301 304 306 308 312 316 321 324 328 332 335 336 336 337 340 342 343 343 341 341 344 348 350 351 346 335 326 321 320 320 319 321 331 338 338 332 327 316 291 266 255 261 316 349 4 12 13 18 24 37 57 68 66 60
258 263 262 260 260 263 265 264 262 262 266 270 273 276 281 286 290 293 294 297 300 303 306 308 310 315 319 322 326 330 333 335 336 337 339 342 342 342 342 343 345 345 345 348 349 343 332 322 317 318 320 321 329 340 342 335 327 316 293 267 250 249 295 342 1 13 21 21 20 33 60 72 73 70
258 260 259 258 260 263 264 262 261 263 266 269 272 275 279 284 287 289 291 294 299 301 302 305 308 312 317 321 325 328 331 334 336 337 339 341 341 342 343 345 347 345 343 344 345 345 342 331 318 314 315 318 331 344 344 332 321 312 293 267 244 241 275 327 6 25 31 24 15 28 66 83 84 82
256 258 258 259 260 261 261 260 261 264 266 268 270 274 278 281 283 285 288 290 294 296 298 302 306 310 316 320 324 326 329 333 335 337 338 340 340 342 344 347 348 346 342 342 343 344 344 340 327 315 313 318 331 343 348 342 328 315 295 265 239 233 252 278 28 52 43 30 17 18 61 91 94 92
257 258 258 259 259 259 259 259 262 265 266 267 270 273 276 278 279 281 284 286 289 293 296 299 304 309 314 318 321 325 327 331 333 335 337 339 340 342 345 347 348 347 342 340 341 342 341 339 334 326 321 321 322 326 338 352 352 329 294 257 236 229 239 245 177 102 56 36 26 19 53 100 101 99
254 255 255 257 257 257 258 260 262 265 266 267 270 272 273 275 277 278 280 283 287 290 293 297 302 307 311 313 318 323 326 329 331 333 337 338 338 340 345 347 348 347 344 340 338 339 339 336 333 330 328 322 309 306 322 347 3 346 253 242 232 227 231 229 188 107 54 39 42 43 64 105 104 104
253 253 254 255 255 256 258 260 261 264 266 266 267 269 270 271 273 275 276 279 283 286 291 295 299 304 307 310 316 321 324 327 330 332 335 337 337 338 341 344 347 347 345 340 336 335 335 331 328 328 324 321 317 309 319 342 5 117 204 224 230 230 229 219 190 100 1 351 30 66 112 128 112 106
251 252 253 254 254 255 257 259 261 263 264 263 263 264 265 267 269 271 273 275 279 283 288 292 296 300 303 306 313 318 321 324 327 330 333 335 336 337 337 340 344 346 346 341 333 329 329 324 322 323 319 314 313 308 309 324 341 261 196 208 223 231 233 221 182 10 338 329 331 341 160 152 129 116
251 252 254 255 254 255 256 257 259 262 262 260 260 260 261 263 265 268 269 272 276 279 284 289 293 295 298 302 308 313 317 321 323 326 330 333 335 336 335 337 340 342 343 341 331 323 321 319 318 320 317 309 305 300 295 299 309 243 202 206 215 221 228 243 268 348 336 332 329 322 314 295 200 135
255 255 256 255 253 253 253 254 257 259 258 257 257 257 259 260 262 265 266 269 273 276 279 284 288 290 293 298 303 308 312 316 319 322 325 329 333 334 333 334 336 337 338 338 330 318 314 314 314 317 315 306 297 292 285 281 279 242 209 207 210 210 215 232 235 241 335 340 335 324 320 317 308 281
258 256 256 254 253 253 252 253 255 256 255 255 254 255 258 260 261 263 265 267 270 273 276 281 283 286 289 293 298 302 306 309 314 317 320 324 329 332 331 332 333 333 333 333 326 315 311 311 309 306 305 298 289 285 285 282 278 259 225 212 211 212 218 229 227 215 221 240 267 287 301 307 309 312
258 256 256 254 253 252 251 251 252 253 252 252 253 255 258 259 259 261 263 265 268 271 274 277 280 283 286 289 293 297 301 304 309 313 316 320 326 329 330 331 331 330 329 327 321 311 307 307 305 301 299 294 285 281 278 270 263 251 230 217 213 214 224 236 239 237 241 244 243 242 240 255 290 312
259 257 256 255 252 250 250 250 251 251 250 251 253 256 258 258 258 260 262 264 267 270 273 276 278 281 283 287 290 293 296 299 303 308 312 316 322 326 328 329 328 327 325 322 314 305 303 305 303 303 304 296 277 265 262 255 242 227 221 219 215 216 224 236 243 250 263 272 272 268 267 270 282 298
262 259 258 256 253 250 250 250 250 250 250 252 254 256 256 256 257 259 262 265 267 269 273 276 278 280 282 285 287 290 292 294 298 302 307 311 316 322 324 325 326 324 320 314 305 297 298 302 302 302 303 295 275 259 251 244 232 216 208 210 214 218 226 236 246 260 276 284 282 282 288 287 280 281
264 261 259 257 253 251 250 249 250 250 251 253 254 255 255 255 256 259 262 264 266 268 272 275 277 279 281 283 285 286 287 289 292 296 301 305 310 316 320 321 323 322 316 307 297 289 288 292 296 299 299 289 270 246 226 218 218 213 205 205 212 221 230 239 250 266 277 280 278 282 291 292 283 277
Height
1561 1561 1560 1561 1561 1561 1560 1560 1560 1559 1558 1558 1557 1556 1555 1554 1553 1551 1549 1547 1546 1544 1543 1541 1538 1536 1534 1532 1529 1527 1524 1521 1518 1515 1511 1508 1505 1503 1501 1499 1495 1491 1485 1481 1476 1472 1469 1465 1460 1455 1450 1446 1441 1437 1433 1429 1424 1420 1416 1411 1406 1401 1396 1391 1386 1380 1375 1370 1365 1360 1355 1350 1346 1341
1559 1559 1559 1559 1559 1559 1558 1558 1558 1557 1557 1556 1556 1555 1554 1553 1552 1550 1548 1545 1544 1543 1541 1540 1537 1534 1532 1529 1526 1524 1521 1518 1516 1513 1509 1506 1504 1502 1499 1496 1492 1487 1482 1478 1473 1469 1466 1462 1457 1452 1447 1443 1438 1434 1430 1426 1421 1417 1412 1407 1402 1397 1392 1387 1381 1376 1371 1366 1360 1355 1349 1344 1339 1334
1557 1558 1558 1557 1557 1557 1556 1556 1556 1556 1555 1555 1554 1553 1552 1551 1550 1549 1547 1544 1543 1542 1540 1538 1536 1533 1530 1528 1524 1521 1519 1516 1514 1511 1508 1504 1502 1499 1496 1493 1489 1485 1479 1474 1470 1466 1462 1458 1453 1448 1444 1440 1436 1431 1427 1423 1419 1414 1408 1403 1399 1394 1388 1383 1377 1372 1367 1361 1355 1349 1343 1337 1331 1326
1556 1556 1556 1556 1555 1555 1555 1555 1554 1554 1554 1553 1553 1552 1551 1550 1548 1547 1545 1542 1541 1540 1539 1536 1534 1532 1529 1526 1523 1520 1517 1515 1512 1510 1507 1502 1499 1496 1492 1489 1486 1482 1476 1471 1466 1463 1459 1455 1450 1445 1441 1437 1433 1428 1424 1420 1416 1411 1406 1401 1396 1390 1385 1379 1373 1368 1362 1356 1350 1343 1337 1330 1323 1317
1554 1554 1554 1554 1553 1553 1553 1553 1553 1552 1552 1551 1551 1550 1549 1548 1546 1544 1543 1540 1538 1537 1536 1534 1532 1530 1527 1524 1521 1518 1515 1513 1510 1508 1505 1500 1495 1491 1488 1485 1482 1479 1474 1468 1464 1460 1457 1452 1446 1441 1437 1433 1429 1425 1421 1418 1414 1409 1403 1398 1393 1388 1382 1376 1370 1364 1358 1351 1344 1337 1329 1321 1314 1307
1552 1552 1552 1552 1551 1551 1551 1551 1551 1551 1550 1550 1549 1548 1547 1546 1544 1542 1540 1538 1535 1533 1533 1531 1529 1527 1525 1522 1519 1515 1512 1510 1506 1504 1501 1497 1492 1488 1485 1482 1479 1476 1471 1466 1461 1457 1454 1450 1444 1439 1434 1430 1426 1422 1418 1415 1411 1406 1401 1396 1390 1384 1378 1372 1366 1361 1354 1347 1339 1330 1321 1312 1303 1295
1550 1550 1550 1550 1550 1550 1550 1550 1549 1549 1548 1548 1547 1546 1545 1544 1542 1541 1539 1537 1534 1531 1529 1528 1526 1524 1522 1519 1516 1513 1510 1507 1503 1500 1497 1493 1489 1487 1484 1480 1476 1472 1467 1462 1458 1455 1451 1447 1442 1437 1432 1427 1423 1419 1416 1412 1407 1403 1398 1392 1387 1380 1374 1369 1363 1358 1351 1343 1335 1326 1315 1304 1292 1281
1548 1548 1548 1548 1548 1548 1548 1548 1548 1547 1547 1546 1545 1544 1543 1542 1541 1539 1537 1535 1533 1529 1527 1525 1524 1521 1519 1516 1513 1510 1507 1505 1502 1498 1494 1491 1487 1484 1482 1479 1474 1469 1464 1459 1455 1452 1448 1443 1439 1434 1429 1424 1421 1417 1413 1409 1404 1399 1394 1388 1383 1377 1372 1367 1362 1357 1350 1342 1334 1322 1309 1296 1281 1268
1546 1546 1546 1546 1547 1547 1546 1546 1546 1545 1545 1544 1543 1542 1541 1540 1539 1537 1536 1533 1531 1528 1526 1523 1521 1519 1517 1514 1511 1508 1504 1501 1499 1495 1492 1489 1485 1480 1478 1475 1471 1466 1461 1455 1451 1448 1445 1441 1436 1432 1426 1422 1419 1415 1411 1407 1402 1396 1390 1385 1379 1375 1371 1366 1362 1357 1351 1344 1335 1321 1306 1291 1276 1262
1544 1544 1544 1545 1545 1545 1545 1544 1544 1543 1542 1542 1541 1540 1539 1538 1537 1535 1533 1531 1529 1527 1524 1521 1519 1517 1515 1512 1509 1506 1503 1499 1495 1492 1488 1486 1483 1478 1473 1470 1467 1463 1458 1453 1449 1445 1442 1439 1434 1429 1424 1420 1417 1413 1409 1404 1400 1394 1388 1382 1377 1373 1370 1366 1362 1357 1352 1346 1337 1325 1309 1294 1279 1265
1542 1542 1542 1543 1543 1543 1543 1542 1542 1541 1540 1539 1538 1538 1536 1535 1534 1533 1531 1529 1527 1525 1522 1520 1517 1515 1513 1510 1507 1504 1501 1498 1495 1491 1485 1481 1479 1475 1470 1467 1463 1459 1455 1451 1447 1444 1440 1436 1432 1428 1423 1419 1415 1411 1407 1402 1397 1392 1386 1381 1376 1372 1369 1366 1362 1358 1353 1347 1338 1329 1317 1301 1288 1276
1540 1540 1541 1541 1541 1541 1541 1540 1540 1539 1538 1537 1536 1535 1534 1533 1532 1531 1529 1526 1524 1522 1521 1519 1516 1513 1511 1508 1505 1502 1499 1496 1493 1491 1486 1480 1476 1472 1468 1466 1462 1457 1452 1448 1445 1442 1437 1433 1429 1425 1421 1418 1414 1411 1406 1401 1396 1390 1384 1379 1375 1372 1369 1366 1363 1359 1354 1348 1341 1333 1324 1312 1300 1290
1538 1538 1539 1539 1539 1539 1538 1538 1537 1537 1536 1535 1534 1533 1532 1531 1530 1528 1526 1524 1522 1520 1519 1517 1514 1511 1509 1506 1503 1500 1497 1494 1491 1489 1486 1481 1476 1472 1468 1465 1462 1456 1450 1445 1443 1440 1435 1430 1427 1424 1420 1417 1414 1410 1406 1401 1396 1390 1385 1381 1377 1374 1371 1368 1365 1361 1356 1350 1344 1337 1329 1321 1313 1304
1536 1536 1536 1536 1536 1536 1536 1536 1535 1534 1533 1532 1531 1530 1529 1528 1527 1525 1524 1522 1520 1518 1516 1514 1512 1509 1507 1505 1502 1498 1495 1493 1490 1487 1483 1479 1476 1472 1466 1462 1460 1456 1449 1443 1440 1438 1435 1430 1426 1423 1420 1417 1414 1411 1406 1402 1398 1392 1389 1385 1381 1377 1375 1371 1367 1363 1358 1352 1347 1341 1335 1328 1322 1316
1534 1534 1534 1534 1534 1534 1533 1533 1532 1531 1531 1530 1529 1528 1527 1526 1524 1522 1521 1519 1518 1516 1514 1512 1510 1507 1504 1503 1500 1497 1494 1491 1488 1485 1482 1479 1475 1471 1466 1460 1457 1455 1449 1442 1437 1435 1434 1431 1427 1423 1421 1418 1415 1412 1408 1404 1400 1395 1392 1389 1385 1381 1377 1374 1370 1365 1361 1356 1350 1345 1340 1334 1329 1323
1531 1532 1532 1531 1531 1531 1530 1530 1530 1529 1528 1527 1527 1526 1525 1523 1522 1520 1518 1517 1515 1513 1511 1509 1508 1505 1503 1501 1498 1495 1492 1489 1486 1483 1481 1479 1474 1471 1467 1461 1456 1453 1449 1443 1437 1433 1432 1431 1427 1423 1422 1419 1416 1413 1409 1405 1402 1398 1394 1392 1388 1384 1380 1376 1373 1368 1364 1359 1354 1349 1344 1339 1335 1330
1529 1529 1529 1529 1529 1528 1528 1527 1527 1526 1526 1525 1525 1524 1522 1521 1519 1518 1516 1514 1513 1511 1509 1507 1506 1504 1501 1499 1496 1494 1491 1487 1485 1482 1480 1477 1473 1469 1466 1462 1457 1453 1449 1444 1437 1432 1430 1430 1427 1423 1421 1419 1416 1413 1409 1406 1403 1400 1397 1394 1390 1386 1383 1379 1375 1372 1367 1362 1358 1353 1348 1344 1340 1336
1527 1527 1527 1526 1526 1526 1525 1525 1525 1524 1524 1523 1522 1521 1520 1518 1517 1516 1514 1513 1511 1509 1508 1506 1504 1503 1500 1497 1495 1493 1490 1487 1484 1481 1478 1475 1471 1467 1465 1462 1457 1453 1449 1445 1439 1433 1429 1429 1427 1423 1420 1418 1416 1414 1410 1407 1405 1402 1398 1396 1392 1388 1385 1382 1378 1374 1370 1366 1362 1357 1353 1349 1345 1341
1524 1524 1524 1524 1524 1523 1523 1523 1522 1522 1522 1521 1520 1519 1518 1516 1515 1514 1512 1511 1509 1508 1506 1504 1502 1501 1498 1496 1493 1491 1488 1486 1483 1480 1477 1474 1470 1465 1463 1460 1456 1452 1449 1446 1441 1434 1430 1429 1426 1422 1420 1417 1415 1413 1410 1407 1405 1403 1399 1397 1394 1391 1387 1384 1380 1377 1373 1369 1365 1361 1358 1354 1350 1347
1522 1522 1522 1521 1521 1521 1521 1520 1520 1520 1519 1519 1518 1517 1515 1514 1513 1511 1510 1509 1507 1505 1504 1502 1500 1498 1496 1494 1491 1489 1487 1484 1481 1478 1476 1472 1468 1463 1460 1457 1454 1450 1447 1444 1442 1436 1431 1429 1425 1421 1418 1416 1414 1412 1410 1407 1405 1403 1401 1398 1395 1392 1389 1386 1382 1379 1376 1373 1369 1365 1362 1359 1356 1352
1519 1519 1519 1519 1519 1519 1518 1518 1518 1517 1517 1516 1515 1514 1513 1512 1511 1509 1508 1507 1505 1503 1502 1500 1498 1496 1494 1492 1490 1488 1485 1483 1480 1476 1473 1469 1466 1462 1458 1454 1450 1448 1444 1442 1440 1436 1431 1428 1425 1420 1417 1416 1414 1411 1409 1407 1405 1403 1402 1399 1396 1394 1391 1388 1385 1382 1378 1375 1372 1369 1366 1364 1361 1357
1517 1517 1517 1517 1517 1517 1516 1516 1515 1515 1514 1513 1512 1511 1510 1509 1508 1507 1505 1504 1503 1501 1500 1498 1496 1494 1492 1491 1489 1486 1484 1481 1478 1475 1470 1467 1464 1460 1456 1452 1448 1445 1443 1441 1439 1435 1431 1428 1425 1419 1414 1412 1412 1411 1409 1406 1404 1403 1402 1400 1397 1395 1393 1390 1387 1384 1381 1378 1375 1372 1369 1367 1364 1361
1514 1515 1515 1515 1515 1515 1514 1514 1513 1512 1511 1510 1509 1508 1507 1506 1505 1504 1503 1502 1500 1499 1497 1496 1494 1493 1491 1489 1487 1484 1482 1479 1476 1472 1468 1465 1461 1458 1455 1451 1447 1443 1441 1440 1438 1433 1430 1427 1425 1422 1416 1410 1408 1410 1409 1406 1404 1403 1402 1400 1398 1396 1394 1392 1389 1386 1383 1380 1377 1374 1372 1370 1368 1365
1512 1512 1512 1512 1513 1512 1512 1511 1511 1510 1509 1507 1506 1505 1504 1503 1502 1501 1500 1499 1497 1496 1494 1493 1491 1490 1488 1487 1484 1482 1479 1476 1472 1469 1465 1462 1460 1456 1453 1450 1446 1443 1440 1438 1436 1433 1429 1426 1424 1423 1421 1415 1409 1407 1408 1407 1404 1403 1403 1401 1399 1397 1395 1393 1391 1388 1385 1382 1379 1377 1375 1373 1371 1369
1509 1509 1510 1510 1510 1510 1509 1509 1508 1507 1506 1504 1503 1502 1501 1500 1499 1498 1497 1496 1494 1493 1491 1490 1488 1487 1486 1484 1482 1479 1476 1473 1469 1466 1463 1460 1457 1455 1451 1448 1445 1442 1439 1437 1435 1432 1429 1426 1423 1421 1420 1418 1413 1409 1407 1407 1405 1404 1403 1402 1400 1398 1396 1394 1392 1389 1387 1385 1382 1380 1378 1376 1374 1372
1506 1507 1507 1507 1508 1507 1507 1506 1505 1504 1502 1501 1500 1500 1499 1497 1496 1495 1494 1493 1491 1490 1488 1487 1486 1484 1483 1481 1479 1476 1473 1470 1467 1464 1461 1458 1455 1453 1450 1447 1443 1440 1437 1435 1434 1432 1428 1425 1423 1421 1418 1415 1413 1410 1408 1407 1405 1404 1403 1402 1400 1398 1397 1395 1393 1391 1389 1387 1385 1383 1381 1379 1377 1375
1503 1504 1505 1505 1505 1504 1504 1503 1502 1500 1499 1498 1498 1497 1496 1494 1493 1492 1491 1489 1488 1487 1485 1484 1483 1481 1480 1478 1476 1473 1470 1467 1465 1462 1460 1457 1453 1450 1448 1446 1443 1439 1436 1434 1432 1431 1428 1425 1423 1421 1418 1415 1412 1410 1408 1407 1405 1404 1403 1403 1401 1399 1398 1396 1394 1392 1391 1389 1387 1386 1384 1382 1380 1379
1501 1501 1502 1502 1502 1501 1500 1499 1498 1497 1496 1495 1495 1494 1492 1491 1490 1489 1488 1486 1485 1484 1483 1482 1480 1479 1477 1475 1473 1470 1468 1465 1462 1460 1458 1455 1451 1447 1445 1444 1441 1438 1435 1433 1431 1429 1427 1424 1422 1420 1418 1415 1412 1410 1408 1407 1405 1404 1403 1403 1402 1400 1399 1397 1395 1394 1392 1391 1390 1388 1386 1384 1383 1382
1498 1499 1499 1499 1498 1498 1497 1496 1495 1493 1493 1492 1491 1490 1489 1488 1487 1486 1485 1484 1483 1482 1480 1479 1477 1476 1474 1472 1470 1468 1465 1463 1460 1458 1456 1452 1449 1445 1442 1440 1439 1437 1434 1432 1429 1427 1425 1422 1420 1418 1417 1415 1412 1410 1408 1406 1405 1404 1403 1403 1402 1401 1399 1398 1396 1395 1394 1393 1392 1390 1389 1387 1386 1385
1495 1496 1496 1495 1495 1494 1493 1492 1491 1491 1490 1489 1488 1487 1486 1485 1484 1483 1482 1481 1480 1479 1478 1476 1474 1473 1470 1469 1467 1465 1463 1460 1458 1455 1453 1450 1447 1443 1440 1437 1436 1434 1433 1430 1427 1425 1422 1420 1418 1416 1415 1414 1412 1409 1407 1406 1405 1403 1403 1403 1402 1401 1400 1399 1397 1396 1395 1394 1393 1392 1391 1390 1389 1387
1491 1492 1491 1491 1491 1490 1490 1489 1488 1488 1487 1486 1485 1484 1483 1482 1481 1480 1479 1478 1477 1476 1475 1473 1471 1469 1467 1465 1464 1462 1460 1458 1456 1453 1450 1447 1444 1441 1438 1435 1433 1431 1430 1429 1426 1423 1421 1418 1416 1415 1413 1412 1410 1408 1407 1405 1404 1403 1403 1402 1402 1402 1401 1400 1398 1397 1397 1396 1395 1394 1393 1392 1391 1390
1487 1487 1487 1487 1486 1486 1486 1486 1485 1485 1484 1483 1482 1481 1480 1479 1478 1477 1476 1475 1474 1473 1471 1470 1468 1466 1465 1462 1460 1459 1457 1455 1453 1450 1448 1445 1442 1439 1436 1433 1431 1428 1426 1425 1424 1422 1420 1417 1415 1413 1412 1411 1409 1407 1405 1404 1404 1403 1402 1402 1402 1402 1401 1400 1399 1398 1398 1397 1396 1396 1395 1394 1394 1393
1482 1482 1482 1483 1482 1482 1482 1482 1482 1481 1480 1480 1479 1478 1477 1475 1474 1473 1473 1471 1470 1469 1468 1467 1465 1464 1462 1460 1458 1456 1454 1452 1450 1448 1445 1443 1440 1438 1435 1432 1429 1427 1424 1422 1421 1420 1418 1416 1414 1412 1411 1409 1408 1406 1405 1404 1403 1403 1402 1402 1402 1402 1402 1401 1400 1400 1399 1399 1398 1397 1397 1396 1396 1395
1477 1478 1478 1478 1478 1478 1478 1478 1478 1477 1477 1476 1476 1475 1474 1472 1471 1470 1469 1468 1467 1466 1465 1464 1463 1461 1459 1457 1455 1453 1451 1449 1448 1445 1443 1441 1438 1436 1433 1430 1428 1425 1423 1421 1419 1417 1416 1414 1413 1411 1410 1408 1407 1405 1404 1403 1402 1402 1402 1402 1402 1402 1402 1401 1401 1400 1400 1400 1399 1399 1398 1398 1397 1397
1473 1473 1474 1474 1474 1474 1474 1474 1474 1473 1473 1473 1472 1471 1471 1470 1468 1467 1466 1465 1464 1463 1462 1461 1460 1458 1456 1454 1452 1450 1448 1446 1445 1443 1441 1439 1436 1434 1432 1429 1426 1424 1421 1419 1418 1416 1414 1413 1411 1410 1409 1408 1407 1405 1404 1403 1402 1401 1401 1402 1402 1402 1402 1402 1401 1401 1401 1401 1400 1400 1400 1399 1399 1399
1468 1469 1469 1470 1470 1470 1470 1470 1470 1469 1469 1469 1468 1468 1468 1467 1466 1465 1463 1462 1461 1460 1459 1459 1457 1455 1454 1452 1450 1448 1446 1444 1442 1441 1439 1437 1434 1432 1430 1427 1425 1423 1421 1418 1417 1415 1413 1412 1410 1409 1409 1408 1407 1406 1404 1403 1402 1401 1401 1401 1402 1402 1402 1402 1402 1401 1401 1401 1401 1401 1401 1400 1400 1400
1464 1464 1465 1465 1465 1466 1466 1466 1465 1465 1465 1464 1464 1464 1464 1463 1463 1462 1461 1459 1458 1457 1456 1456 1454 1453 1451 1449 1447 1445 1443 1442 1440 1438 1437 1435 1433 1430 1428 1426 1424 1421 1419 1417 1416 1414 1412 1411 1410 1409 1408 1407 1407 1406 1404 1402 1401 1401 1401 1401 1402 1402 1402 1402 1402 1402 1402 1401 1401 1401 1401 1401 1401 1401
1459 1460 1460 1460 1461 1461 1461 1461 1461 1460 1460 1460 1460 1460 1460 1460 1460 1459 1458 1456 1455 1454 1453 1453 1452 1451 1449 1447 1444 1443 1441 1439 1438 1436 1435 1433 1431 1429 1426 1424 1422 1420 1418 1417 1415 1413 1412 1411 1410 1408 1407 1406 1405 1405 1403 1402 1401 1401 1400 1401 1401 1402 1402 1402 1402 1402 1402 1402 1402 1402 1402 1402 1401 1401
1455 1455 1456 1456 1457 1457 1457 1457 1457 1456 1456 1456 1456 1456 1456 1456 1456 1455 1455 1453 1452 1451 1450 1449 1448 1448 1447 1445 1442 1440 1438 1437 1435 1434 1433 1431 1429 1427 1425 1422 1420 1418 1417 1416 1414 1412 1411 1410 1409 1408 1407 1405 1404 1404 1402 1401 1400 1400 1400 1400 1401 1401 1402 1402 1402 1402 1402 1402 1402 1402 1402 1402 1402 1402
1452 1451 1451 1452 1452 1452 1452 1452 1452 1452 1452 1452 1452 1452 1452 1452 1452 1451 1451 1450 1449 1448 1446 1446 1445 1444 1444 1442 1440 1438 1436 1435 1433 1432 1430 1429 1427 1425 1423 1421 1419 1417 1415 1414 1413 1411 1411 1410 1409 1407 1406 1405 1404 1403 1402 1401 1400 1399 1399 1400 1400 1401 1401 1401 1401 1401 1402 1402 1402 1402 1402 1402 1402 1402
1447 1447 1447 1447 1447 1447 1448 1448 1448 1448 1448 1448 1448 1448 1448 1448 1448 1447 1447 1447 1446 1445 1443 1442 1441 1441 1440 1439 1437 1435 1434 1432 1431 1430 1428 1427 1425 1424 1421 1419 1417 1416 1414 1413 1411 1410 1410 1409 1408 1406 1405 1404 1403 1402 1401 1400 1399 1399 1399 1399 1400 1400 1401 1401 1401 1401 1401 1401 1401 1401 1402 1402 1402 1402
1442 1442 1442 1442 1442 1443 1443 1443 1444 1444 1444 1444 1444 1444 1444 1444 1444 1443 1443 1443 1442 1441 1440 1439 1439 1438 1437 1435 1434 1432 1431 1430 1429 1427 1426 1424 1423 1421 1420 1417 1416 1414 1413 1411 1410 1409 1409 1408 1406 1405 1404 1403 1402 1401 1400 1399 1399 1398 1398 1398 1399 1400 1400 1400 1400 1400 1400 1400 1400 1401 1401 1401 1401 1401
1437 1437 1437 1437 1438 1438 1439 1439 1439 1439 1440 1440 1440 1440 1440 1440 1440 1439 1439 1439 1439 1438 1437 1436 1436 1435 1434 1432 1431 1429 1428 1427 1426 1425 1424 1422 1421 1419 1417 1416 1414 1412 1411 1410 1409 1408 1407 1406 1405 1404 1402 1401 1401 1400 1399 1398 1398 1397 1397 1397 1398 1398 1399 1400 1400 1400 1400 1400 1400 1400 1401 1401 1401 1401
1432 1432 1432 1433 1433 1434 1434 1435 1435 1435 1435 1435 1435 1435 1435 1435 1436 1436 1435 1435 1435 1434 1434 1433 1432 1431 1430 1429 1428 1427 1425 1424 1423 1422 1421 1420 1418 1417 1415 1414 1412 1411 1410 1408 1407 1407 1406 1405 1404 1403 1401 1400 1399 1398 1397 1397 1397 1396 1396 1396 1397 1397 1398 1399 1399 1400 1400 1400 1400 1400 1400 1400 1400 1400
1427 1428 1428 1428 1429 1429 1430 1430 1430 1430 1430 1430 1430 1430 1431 1431 1432 1432 1431 1431 1431 1431 1430 1430 1429 1428 1427 1426 1424 1424 1423 1421 1421 1420 1418 1417 1416 1415 1413 1411 1410 1409 1408 1407 1406 1405 1405 1404 1403 1402 1400 1399 1398 1397 1396 1396 1396 1396 1396 1396 1396 1397 1398 1398 1399 1399 1399 1400 1400 1399 1399 1399 1399 1399